, AK

(GMT )
St. Marys

Weather History for PASM - May, 2014

Change the Weather History Date:

Thursday, May 15, 2014

  Actual Average Record
Temperature  
Mean Temperature 50 °F -  
Max Temperature 57 °F 44 °F 59 °F (1999)
Min Temperature 44 °F 30 °F 19 °F (2013)
Degree Days  
Heating Degree Days 14    
Moisture  
Dew Point 33 °F    
Average Humidity 50    
Maximum Humidity 76    
Minimum Humidity 35    
Precipitation  
Precipitation 0.00 in - - ()
Sea Level Pressure  
Sea Level Pressure 30.41 in    
Wind  
Wind Speed 5 mph (West)    
Max Wind Speed 15 mph    
Max Gust Speed 18 mph    
Visibility 10 miles    
Events      
Averages and records for this station are not official NWS values.
T = Trace of Precipitation, MM = Missing Value Source: NWS Daily Summary

Daily Weather History Graph

Daily Weather History Graph

Search for Another Location

Airport or City:

Trip Planner

Search our weather history database for the weather conditions in past years. The results will help you decide how hot, cold, wet, or windy it might be!

Date:

Astronomy

May. 15, 2014 Rise Set
Actual Time 5:58 AM AKDT 11:42 PM AKDT
Civil Twilight 4:41 AM AKDT 1:00 AM AKDT
Nautical Twilight Sun does not rise Sun does not rise
Astronomical Twilight Sun does not rise Sun does not rise
Moon No Moon Rise 7:02 AM AKDT (5/15)
Length of Visible Light 20h 18m
Length of Day
17h 44m
Full, 99% of the Moon is Illuminated
May 15
Full
May 21
Last Quarter
May 28
New
Jun 5
First Quarter
Jun 12
Full

Hourly Weather History & Observations

Time (AKDT) Temp. Windchill Dew Point Humidity Pressure Visibility Wind Dir Wind Speed Gust Speed Precip Events Conditions
12:16 AM 53.6 °F - 26.6 °F 35% 30.39 in 10.0 mi Calm Calm - N/A   Clear
12:36 AM 53.6 °F - 26.6 °F 35% 30.39 in 10.0 mi Calm Calm - N/A   Clear
12:56 AM 51.8 °F - 24.8 °F 35% 30.39 in 10.0 mi Calm Calm - N/A   Clear
1:16 AM 51.8 °F - 24.8 °F 35% 30.39 in 10.0 mi Calm Calm - N/A   Clear
1:36 AM 51.8 °F - 24.8 °F 35% 30.39 in 10.0 mi Calm Calm - N/A   Clear
1:56 AM 50.0 °F - 24.8 °F 37% 30.39 in 10.0 mi Calm Calm - N/A   Clear
2:16 AM 51.8 °F - 24.8 °F 35% 30.40 in 10.0 mi West 3.5 mph - N/A   Clear
2:36 AM 48.2 °F - 24.8 °F 40% 30.40 in 10.0 mi Calm Calm - N/A   Clear
2:56 AM 46.4 °F - 26.6 °F 46% 30.39 in 10.0 mi Calm Calm - N/A   Clear
3:16 AM 48.2 °F - 26.6 °F 43% 30.39 in 10.0 mi Calm Calm - N/A   Clear
3:36 AM 50.0 °F - 26.6 °F 40% 30.40 in 10.0 mi West 3.5 mph - N/A   Clear
3:56 AM 48.2 °F - 26.6 °F 43% 30.40 in 10.0 mi West 5.8 mph - N/A   Clear
4:16 AM 46.4 °F 42.9 °F 28.4 °F 50% 30.40 in 10.0 mi West 6.9 mph - N/A   Clear
4:36 AM 46.4 °F 43.5 °F 28.4 °F 50% 30.40 in 10.0 mi West 5.8 mph - N/A   Clear
4:56 AM 46.4 °F 43.5 °F 28.4 °F 50% 30.40 in 10.0 mi West 5.8 mph - N/A   Clear
5:16 AM 46.4 °F 44.3 °F 28.4 °F 50% 30.40 in 10.0 mi NW 4.6 mph - N/A   Clear
5:36 AM 44.6 °F - 28.4 °F 53% 30.40 in 10.0 mi Calm Calm - N/A   Clear
5:56 AM 46.4 °F - 28.4 °F 50% 30.40 in 10.0 mi Calm Calm - N/A   Clear
6:16 AM 46.4 °F - 28.4 °F 50% 30.40 in 10.0 mi Calm Calm - N/A   Clear
6:36 AM 46.4 °F - 28.4 °F 50% 30.39 in 10.0 mi Calm Calm - N/A   Clear
6:56 AM 46.4 °F - 28.4 °F 50% 30.39 in 10.0 mi Calm Calm - N/A   Clear
7:16 AM 46.4 °F - 28.4 °F 50% 30.39 in 10.0 mi Calm Calm - N/A   Clear
7:36 AM 48.2 °F - 26.6 °F 43% 30.40 in 10.0 mi Calm Calm - N/A   Clear
7:56 AM 48.2 °F - 28.4 °F 46% 30.40 in 10.0 mi Calm Calm - N/A   Clear
8:16 AM 46.4 °F 45.2 °F 28.4 °F 50% 30.40 in 10.0 mi WSW 3.5 mph - N/A   Clear
8:36 AM 44.6 °F 42.2 °F 28.4 °F 53% 30.41 in 10.0 mi SSW 4.6 mph - N/A   Clear
8:56 AM 44.6 °F 40.7 °F 32.0 °F 61% 30.41 in 10.0 mi SSW 6.9 mph - N/A   Clear
9:16 AM 46.4 °F 42.9 °F 33.8 °F 62% 30.41 in 10.0 mi WSW 6.9 mph - N/A   Clear
9:36 AM 46.4 °F 43.5 °F 30.2 °F 53% 30.41 in 10.0 mi SW 5.8 mph - N/A   Clear
9:56 AM 48.2 °F - 30.2 °F 50% 30.41 in 10.0 mi West 5.8 mph - N/A   Clear
10:16 AM 50.0 °F - 32.0 °F 50% 30.41 in 10.0 mi WSW 8.1 mph - N/A   Clear
11:16 AM 53.6 °F - 33.8 °F 47% 30.42 in 8.0 mi SW 9.2 mph - N/A   Clear
11:36 AM 53.6 °F - 32.0 °F 44% 30.42 in 10.0 mi SW 11.5 mph - N/A   Clear
11:56 AM 51.8 °F - 33.8 °F 50% 30.42 in 10.0 mi WSW 9.2 mph - N/A   Clear
12:16 PM 53.6 °F - 33.8 °F 47% 30.42 in 10.0 mi WSW 10.4 mph - N/A   Partly Cloudy
12:36 PM 53.6 °F - 33.8 °F 47% 30.43 in 10.0 mi SW 11.5 mph - N/A   Mostly Cloudy
12:56 PM 53.6 °F - 33.8 °F 47% 30.43 in 10.0 mi WSW 11.5 mph - N/A   Scattered Clouds
1:16 PM 53.6 °F - 35.6 °F 51% 30.43 in 10.0 mi WSW 12.7 mph - N/A   Clear
1:36 PM 53.6 °F - 33.8 °F 47% 30.42 in 2.5 mi SW 12.7 mph - N/A   Clear
1:56 PM 55.4 °F - 35.6 °F 47% 30.43 in 7.0 mi West 12.7 mph - N/A   Clear
2:16 PM 55.4 °F - 35.6 °F 47% 30.42 in 10.0 mi SW 11.5 mph - N/A   Mostly Cloudy
2:36 PM 55.4 °F - 35.6 °F 47% 30.42 in 10.0 mi West 12.7 mph - N/A   Mostly Cloudy
2:56 PM 55.4 °F - 35.6 °F 47% 30.42 in 10.0 mi West 15.0 mph 18.4 mph N/A   Partly Cloudy
3:16 PM 55.4 °F - 37.4 °F 51% 30.42 in 10.0 mi West 11.5 mph - N/A   Mostly Cloudy
3:36 PM 55.4 °F - 37.4 °F 51% 30.42 in 10.0 mi West 12.7 mph - N/A   Overcast
3:56 PM 55.4 °F - 37.4 °F 51% 30.42 in 10.0 mi West 10.4 mph - N/A   Overcast
4:16 PM 55.4 °F - 37.4 °F 51% 30.42 in 10.0 mi West 10.4 mph - N/A   Overcast
4:36 PM 55.4 °F - 37.4 °F 51% 30.41 in 10.0 mi West 9.2 mph - N/A   Overcast
4:56 PM 57.2 °F - 37.4 °F 48% 30.41 in 10.0 mi WSW 11.5 mph - N/A   Mostly Cloudy
5:16 PM 57.2 °F - 37.4 °F 48% 30.41 in 10.0 mi WSW 11.5 mph - N/A   Scattered Clouds
5:36 PM 57.2 °F - 37.4 °F 48% 30.40 in 10.0 mi West 13.8 mph 17.3 mph N/A   Clear
5:56 PM 57.2 °F - 37.4 °F 48% 30.40 in 10.0 mi West 13.8 mph - N/A   Clear
6:16 PM 57.2 °F - 37.4 °F 48% 30.40 in 10.0 mi West 10.4 mph 17.3 mph N/A   Clear
6:36 PM 57.2 °F - 37.4 °F 48% 30.40 in 10.0 mi West 13.8 mph - N/A   Clear
6:56 PM 57.2 °F - 37.4 °F 48% 30.41 in 10.0 mi West 12.7 mph - N/A   Clear
7:16 PM 57.2 °F - 37.4 °F 48% 30.41 in 10.0 mi West 12.7 mph - N/A   Clear
7:36 PM 55.4 °F - 37.4 °F 51% 30.40 in 10.0 mi WSW 9.2 mph - N/A   Scattered Clouds
7:56 PM 55.4 °F - 35.6 °F 47% 30.40 in 10.0 mi West 10.4 mph - N/A   Scattered Clouds
8:16 PM 55.4 °F - 35.6 °F 47% 30.40 in 10.0 mi WSW 10.4 mph - N/A   Mostly Cloudy
8:36 PM 55.4 °F - 35.6 °F 47% 30.40 in 10.0 mi West 11.5 mph - N/A   Mostly Cloudy
8:56 PM 55.4 °F - 37.4 °F 51% 30.40 in 10.0 mi WSW 11.5 mph - N/A   Mostly Cloudy
9:16 PM 53.6 °F - 37.4 °F 54% 30.40 in 10.0 mi West 10.4 mph - N/A   Scattered Clouds
9:36 PM 53.6 °F - 39.2 °F 58% 30.41 in 10.0 mi WNW 8.1 mph - N/A   Overcast
9:56 PM 53.6 °F - 39.2 °F 58% 30.41 in 10.0 mi WNW 9.2 mph - N/A   Overcast
10:16 PM 51.8 °F - 39.2 °F 62% 30.41 in 10.0 mi NW 9.2 mph - N/A   Overcast
10:36 PM 48.2 °F - 39.2 °F 71% 30.42 in 10.0 mi NW 6.9 mph - N/A   Overcast
10:56 PM 48.2 °F - 37.4 °F 66% 30.42 in 10.0 mi WNW 8.1 mph - N/A   Overcast
11:16 PM 46.4 °F 42.9 °F 37.4 °F 71% 30.42 in 10.0 mi NW 6.9 mph - N/A   Overcast
11:36 PM 46.4 °F 44.3 °F 37.4 °F 71% 30.42 in 10.0 mi NW 4.6 mph - N/A   Overcast
11:56 PM 44.6 °F 39.7 °F 37.4 °F 76% 30.42 in 10.0 mi WNW 9.2 mph - N/A   Overcast